This demonstration page uses our WeatherBlox Daily Observations layout. Learn more.

Left ArrowRight Arrow

44.31136, -96.79839

Hourly Observations for October 1, 2022

Temp ( °F °C ) Dew Point ( °F °C ) Humidity (%) Winds ( mph kmh ) Pressure ( in mb ) Visibility ( mi km ) Precip ( " mm )
12:56 am 00:56 Mostly Clear with Light Rain N/A N/A N/A SE 16 26 30.15 1021 10 16 0.01 0.13
1:56 am 01:56 Mostly Clear with Light Rain N/A N/A N/A SSE 14 22 30.16 1021 10 16 0.01 0.13
2:56 am 02:56 Cloudy N/A N/A N/A SSE 14 22 30.16 1021 10 16 0.01 0.13
3:56 am 03:56 Mostly Clear N/A N/A N/A SE 14 22 30.17 1022 10 16 0.00 0.00
4:56 am 04:56 Clear N/A N/A N/A SE 14 22 30.17 1022 10 16 0.00 0.00
5:56 am 05:56 Clear N/A N/A N/A SE 13 20 30.18 1022 10 16 0.00 0.00
6:56 am 06:56 Mostly Clear N/A N/A N/A SE 13 20 30.17 1022 10 16 0.00 0.00
7:56 am 07:56 Sunny N/A N/A N/A SE 12 19 30.19 1022 10 16 0.00 0.00
8:56 am 08:56 Sunny N/A N/A N/A SSE 14 22 30.20 1023 10 16 0.00 0.00
9:56 am 09:56 Sunny N/A N/A N/A SE 14 22 30.22 1023 10 16 0.00 0.00
10:56 am 10:56 Sunny N/A N/A N/A SE 15 24 30.22 1023 10 16 0.00 0.00
11:56 am 11:56 Sunny N/A N/A N/A SE 15 24 N/A 10 16 0.00 0.00
12:56 pm 12:56 Sunny N/A N/A N/A SE 17 28 30.21 1023 10 16 0.00 0.00
1:56 pm 13:56 Sunny N/A N/A N/A SSE 20 31 30.20 1023 10 16 0.00 0.00
2:56 pm 14:56 Sunny N/A N/A N/A SE 23 37 30.18 1022 10 16 0.00 0.00
3:56 pm 15:56 Sunny N/A N/A N/A SE 21 33 30.19 1022 10 16 0.00 0.00
4:56 pm 16:56 Sunny N/A N/A N/A ESE 18 30 30.20 1023 10 16 0.00 0.00
5:56 pm 17:56 Sunny N/A N/A N/A ESE 17 28 30.20 1023 10 16 0.00 0.00
6:56 pm 18:56 Sunny N/A N/A N/A SE 14 22 30.21 1023 10 16 0.00 0.00
7:56 pm 19:56 Clear N/A N/A N/A ESE 13 20 30.22 1023 10 16 0.00 0.00
8:56 pm 20:56 Clear N/A N/A N/A ESE 13 20 30.24 1024 10 16 0.00 0.00
9:56 pm 21:56 Clear N/A N/A N/A ESE 13 20 30.25 1024 10 16 0.00 0.00
10:56 pm 22:56 Clear N/A N/A N/A ESE 13 20 30.26 1025 10 16 0.00 0.00
11:56 pm 23:56 Clear N/A N/A N/A ESE 9 15 30.27 1025 10 16 0.00 0.00

Powered by AerisWeather